Weather History for Augusta Bush, GA

Change the Weather History Date:

Thursday, March 7, 2013

  Actual Average Record
Temperature  
Mean Temperature 44 °F 54 °F  
Max Temperature 62 °F 68 °F 84 °F (1880)
Min Temperature 25 °F 40 °F 14 °F (1899)
Degree Days  
Heating Degree Days 21 11  
Month to date heating degree days 144 85  
Since 1 July heating degree days 1948 2117  
Cooling Degree Days 0 0  
Month to date cooling degree days 0 0  
Year to date cooling degree days 15 3  
Moisture  
Dew Point 29 °F    
Average Humidity 61    
Maximum Humidity 92    
Minimum Humidity 29    
Precipitation  
Precipitation 0.00 in 0.15 in 2.53 in (1922)
Month to date precipitation 0.24 1.02  
Year to date precipitation 10.24 8.85  
Sea Level Pressure  
Sea Level Pressure 30.20 in    
Wind  
Wind Speed 2 mph (WNW)    
Max Wind Speed 12 mph    
Max Gust Speed 15 mph    
Visibility 9 miles    
Events      
T = Trace of Precipitation, MM = Missing Value Source: NWS Daily Summary

Daily Weather History Graph

Daily Weather History Graph

Search for Another Location

Airport:

Trip Planner

Search our weather history database for the weather conditions in past years. The results will help you decide how hot, cold, wet, or windy it might be!

Date:

Astronomy

Mar. 07, 2013 Rise Set
Actual Time 6:48 AM EST 6:29 PM EST
Civil Twilight 6:23 AM EST 6:54 PM EST
Nautical Twilight 5:54 AM EST 7:23 PM EST
Astronomical Twilight 5:26 AM EST 7:52 PM EST
Moon 3:36 AM EST (3/7) 2:26 PM EST (3/7)
Length of Visible Light 12h 31m
Length of Day
11h 41m
Waning Crescent, 20% of the Moon is Illuminated
Mar 7
Waning Crescent
Mar 11
New
Mar 19
First Quarter
Mar 27
Full
Apr 3
Last Quarter

Hourly Weather History & Observations

Time (EST) Temp. Windchill Dew Point Humidity Pressure Visibility Wind Dir Wind Speed Gust Speed Precip Events Conditions
12:53 AM 30.9 °F - 25.0 °F 79% 30.17 in 10.0 mi Calm Calm - N/A   Clear
1:53 AM 32.0 °F - 27.0 °F 82% 30.18 in 10.0 mi Calm Calm - N/A   Clear
2:53 AM 28.0 °F - 26.1 °F 92% 30.17 in 10.0 mi Calm Calm - N/A   Clear
3:53 AM 27.0 °F 23.0 °F 25.0 °F 92% 30.18 in 9.0 mi WNW 3.5 mph - N/A   Clear
4:53 AM 28.0 °F - 24.1 °F 85% 30.20 in 8.0 mi Calm Calm - N/A   Clear
5:53 AM 27.0 °F - 24.1 °F 89% 30.23 in 9.0 mi Calm Calm - N/A   Clear
6:53 AM 26.6 °F - 24.8 °F 93% 30.24 in 7.0 mi Calm Calm - N/A   Clear
7:53 AM 32.0 °F - 28.9 °F 88% 30.26 in 7.0 mi Calm Calm - N/A   Clear
8:53 AM 39.0 °F 36.8 °F 32.0 °F 76% 30.27 in 9.0 mi NW 3.5 mph - N/A   Clear
9:53 AM 45.0 °F 42.6 °F 28.0 °F 52% 30.27 in 10.0 mi Variable 4.6 mph - N/A   Clear
10:53 AM 48.0 °F - 27.0 °F 44% 30.25 in 10.0 mi NE 4.6 mph - N/A   Clear
11:53 AM 51.1 °F - 27.0 °F 39% 30.25 in 10.0 mi NNW 4.6 mph - N/A   Clear
12:53 PM 53.6 °F - 28.4 °F 38% 30.21 in 10.0 mi West 6.9 mph - N/A   Clear
1:53 PM 57.0 °F - 28.0 °F 33% 30.18 in 5.0 mi Calm Calm - N/A   Scattered Clouds
2:24 PM 57.2 °F - 28.4 °F 33% 30.16 in 3.0 mi West 8.1 mph - N/A   Haze
2:53 PM 57.9 °F - 28.0 °F 32% 30.16 in 3.0 mi WSW 5.8 mph - N/A   Smoke
3:53 PM 59.0 °F - 28.0 °F 31% 30.15 in 4.0 mi Calm Calm - N/A   Haze
4:53 PM 61.0 °F - 28.0 °F 29% 30.14 in 10.0 mi West 4.6 mph - N/A   Smoke
5:53 PM 59.0 °F - 30.0 °F 33% 30.15 in 10.0 mi West 6.9 mph - N/A   Clear
6:53 PM 48.9 °F - 33.1 °F 54% 30.17 in 10.0 mi Calm Calm - N/A   Clear
7:53 PM 46.0 °F - 34.0 °F 63% 30.19 in 10.0 mi Calm Calm - N/A   Clear
8:53 PM 42.1 °F - 34.0 °F 73% 30.20 in 10.0 mi Calm Calm - N/A   Clear
9:53 PM 39.0 °F - 34.0 °F 82% 30.20 in 10.0 mi Calm Calm - N/A   Clear
10:53 PM 39.0 °F - 33.1 °F 79% 30.21 in 9.0 mi Calm Calm - N/A   Clear
11:53 PM 37.0 °F - 33.1 °F 86% 30.21 in 10.0 mi Calm Calm - N/A   Clear